Retour au catalogue

STARLINK-33580

ActifCommunicationsVLEO
NORAD 63711·PAYLOAD·🇺🇸 United States

Lancé Apr 28, 2025 depuis Vandenberg Space Force Base

Loading…

Prochains Passages (prochaines 24 heures)

TLE

FraisSource: CelesTrak SupGP

Époque: Sep 15, 2026, 02:21 UTC

1 63711C 25087Q   26258.09840278 -.00028217  00000+0 -90763-3 0  2588
2 63711  53.1586  58.6390 0001147  81.6315 324.5678 15.31707963    14

Suivez STARLINK-33580 en temps réel avec AllMySat

Download on the App Store